This is the latest recevied weather packets stored in our database for station/object KA9CBS. If no packets are shown the sender has not sent any weather packets the latest 10 day(s).
| Time | Temp. | Humidity | Pressure | Rain* | Wind** | Luminosity | Snow |
|---|---|---|---|---|---|---|---|
| 1787501695 | 25.56° C | 59% | 1020.5 hPa | 0 mm | - | 626 W/m² | - |
| 1787501390 | 25.56° C | 59% | 1020.4 hPa | 0 mm | - | 614 W/m² | - |
| 1787501087 | 25.56° C | 61% | 1020.7 hPa | 0 mm | - | 601 W/m² | - |
| 1787500782 | 25.56° C | 60% | 1020.4 hPa | 0 mm | - | 583 W/m² | - |
| 1787500478 | 25.56° C | 58% | 1020.5 hPa | 0 mm | - | 586 W/m² | - |
| 1787500173 | 25° C | 64% | 1020.5 hPa | 0 mm | - | 574 W/m² | - |
| 1787499867 | 25° C | 69% | 1020.7 hPa | 0 mm | - | 551 W/m² | - |
| 1787499562 | 25° C | 70% | 1020.3 hPa | 0 mm | - | 534 W/m² | - |
| 1787499257 | 25° C | 70% | 1020.7 hPa | 0 mm | - | 502 W/m² | - |
| 1787498954 | 24.44° C | 69% | 1020.6 hPa | 0 mm | - | 415 W/m² | - |
| 1787498650 | 24.44° C | 67% | 1020.6 hPa | 0 mm | - | 401 W/m² | - |
| 1787498347 | 24.44° C | 67% | 1020.4 hPa | 0 mm | - | 454 W/m² | - |
| 1787498042 | 24.44° C | 71% | 1020.5 hPa | 0 mm | - | 488 W/m² | - |
| 1787497737 | 24.44° C | 73% | 1020.3 hPa | 0 mm | - | 498 W/m² | - |
| 1787497433 | 23.89° C | 73% | 1020.4 hPa | 0 mm | - | 451 W/m² | - |
| 1787497127 | 23.89° C | 72% | 1020.5 hPa | 0 mm | - | 465 W/m² | - |
| 1787496827 | 23.89° C | 74% | 1020.1 hPa | 0 mm | - | 456 W/m² | - |
| 1787496522 | 23.33° C | 74% | 1020.1 hPa | 0 mm | - | 485 W/m² | - |
| 1787496217 | 23.33° C | 76% | 1020.2 hPa | 0 mm | - | 509 W/m² | - |
| 1787495916 | 23.33° C | 77% | 1020.1 hPa | 0 mm | - | 534 W/m² | - |
| 1787495612 | 22.78° C | 79% | 1020 hPa | 0 mm | - | 448 W/m² | - |
| 1787495308 | 22.78° C | 80% | 1020 hPa | 0 mm | - | 405 W/m² | - |
| 1787495004 | 22.78° C | 81% | 1020 hPa | 0 mm | - | 363 W/m² | - |
| 1787494703 | 22.22° C | 81% | 1020 hPa | 0 mm | - | 364 W/m² | - |
| 1787494398 | 22.22° C | 81% | 1020.1 hPa | 0 mm | - | 326 W/m² | - |
* Rain latest hour (hover to see other rain measurements)
** Current wind speed in m/s (hover to see current wind gust speed)